Weather History for Moose Lake, MN

Change the Weather History Date:

Friday, September 21, 2012

  Actual Average Record
Temperature  
Mean Temperature 48 °F -  
Max Temperature 60 °F 63 °F 77 °F (2005)
Min Temperature 35 °F 41 °F 26 °F (1982)
Degree Days  
Heating Degree Days 18    
Moisture  
Dew Point 31 °F    
Average Humidity 61    
Maximum Humidity 87    
Minimum Humidity 23    
Precipitation  
Precipitation 0.05 in - - ()
Sea Level Pressure  
Sea Level Pressure 29.79 in    
Wind  
Wind Speed 4 mph (NW)    
Max Wind Speed 22 mph    
Max Gust Speed 37 mph    
Visibility 10 miles    
Events Rain    
Averages and records for this station are not official NWS values.
T = Trace of Precipitation, MM = Missing Value Source: NWS Daily Summary

Daily Weather History Graph

Daily Weather History Graph

Search for Another Location

Airport:

Trip Planner

Search our weather history database for the weather conditions in past years. The results will help you decide how hot, cold, wet, or windy it might be!

Date:

Astronomy

Sep. 21, 2012 Rise Set
Actual Time 6:57 AM CDT 7:09 PM CDT
Civil Twilight 6:27 AM CDT 7:39 PM CDT
Nautical Twilight 5:51 AM CDT 8:15 PM CDT
Astronomical Twilight 5:15 AM CDT 8:51 PM CDT
Moon 1:41 PM CDT (9/21) 10:49 PM CDT (9/21)
Length of Visible Light 13h 12m
Length of Day
12h 12m
Waxing Crescent, 37% of the Moon is Illuminated
Sep 21
Waxing Crescent
Sep 22
First Quarter
Sep 29
Full
Oct 8
Last Quarter
Oct 15
New

Hourly Weather History & Observations

Time (CDT) Temp. Windchill Dew Point Humidity Pressure Visibility Wind Dir Wind Speed Gust Speed Precip Events Conditions
12:14 AM 44.6 °F 41.4 °F 39.2 °F 81% 29.82 in 10.0 mi WSW 5.8 mph - N/A   Overcast
12:35 AM 44.6 °F 42.2 °F 39.2 °F 81% 29.81 in 10.0 mi WSW 4.6 mph - N/A   Overcast
12:54 AM 44.6 °F - 37.4 °F 76% 29.80 in 10.0 mi Calm Calm - N/A   Overcast
1:14 AM 42.8 °F - 37.4 °F 81% 29.80 in 10.0 mi Calm Calm - N/A   Overcast
1:34 AM 42.8 °F - 37.4 °F 81% 29.81 in 10.0 mi Calm Calm - N/A   Mostly Cloudy
1:55 AM 42.8 °F - 37.4 °F 81% 29.81 in 10.0 mi Calm Calm - 0.01 in   Mostly Cloudy
2:14 AM 42.8 °F - 37.4 °F 81% 29.81 in 10.0 mi Calm Calm - N/A   Scattered Clouds
2:34 AM 42.8 °F - 35.6 °F 76% 29.81 in 10.0 mi Calm Calm - N/A   Clear
2:55 AM 42.8 °F - 35.6 °F 76% 29.81 in 10.0 mi Calm Calm - N/A   Scattered Clouds
3:14 AM 41.0 °F - 35.6 °F 81% 29.81 in 10.0 mi Calm Calm - N/A   Scattered Clouds
3:34 AM 41.0 °F - 35.6 °F 81% 29.80 in 10.0 mi Calm Calm - N/A   Mostly Cloudy
3:55 AM 42.8 °F - 37.4 °F 81% 29.80 in 10.0 mi Calm Calm - N/A   Mostly Cloudy
4:15 AM 41.0 °F - 35.6 °F 81% 29.80 in 10.0 mi Calm Calm - N/A   Scattered Clouds
4:55 AM 41.0 °F 39.0 °F 35.6 °F 81% 29.80 in 10.0 mi West 3.5 mph - N/A   Scattered Clouds
5:14 AM 41.0 °F 38.0 °F 35.6 °F 81% 29.79 in 10.0 mi West 4.6 mph - N/A   Mostly Cloudy
5:34 AM 41.0 °F - 35.6 °F 81% 29.80 in 10.0 mi Calm Calm - N/A   Scattered Clouds
5:54 AM 41.0 °F 38.0 °F 35.6 °F 81% 29.81 in 10.0 mi WNW 4.6 mph - N/A   Scattered Clouds
6:14 AM 41.0 °F - 35.6 °F 81% 29.80 in 10.0 mi Calm Calm - N/A   Clear
6:55 AM 39.2 °F - 33.8 °F 81% 29.81 in 10.0 mi Calm Calm - N/A   Scattered Clouds
7:15 AM 37.4 °F - 33.8 °F 87% 29.81 in 10.0 mi Calm Calm - N/A   Clear
7:35 AM 37.4 °F - 33.8 °F 87% 29.81 in 2.0 mi Calm Calm - N/A   Haze
7:55 AM 41.0 °F - 35.6 °F 81% 29.81 in 7.0 mi Calm Calm - N/A   Clear
8:14 AM 42.8 °F - 37.4 °F 81% 29.81 in 10.0 mi Calm Calm - N/A   Clear
8:34 AM 42.8 °F - 37.4 °F 81% 29.81 in 10.0 mi Calm Calm - N/A   Clear
8:54 AM 44.6 °F 41.4 °F 37.4 °F 76% 29.82 in 10.0 mi NNW 5.8 mph - N/A   Clear
9:15 AM 46.4 °F 42.9 °F 37.4 °F 71% 29.82 in 10.0 mi NW 6.9 mph - N/A   Clear
9:34 AM 48.2 °F - 37.4 °F 66% 29.82 in 10.0 mi Calm Calm - N/A   Clear
9:55 AM 50.0 °F - 35.6 °F 58% 29.82 in 10.0 mi NNW 5.8 mph - N/A   Clear
10:15 AM 50.0 °F - 33.8 °F 54% 29.82 in 10.0 mi NNW 3.5 mph - N/A   Clear
10:34 AM 50.0 °F - 33.8 °F 54% 29.81 in 10.0 mi NNW 9.2 mph - N/A   Scattered Clouds
10:55 AM 51.8 °F - 32.0 °F 47% 29.82 in 10.0 mi NNW 5.8 mph - N/A   Mostly Cloudy
11:15 AM 51.8 °F - 32.0 °F 47% 29.82 in 10.0 mi NNW 9.2 mph 19.6 mph N/A   Mostly Cloudy
11:34 AM 53.6 °F - 30.2 °F 41% 29.81 in 10.0 mi NW 5.8 mph - N/A   Scattered Clouds
11:55 AM 53.6 °F - 30.2 °F 41% 29.81 in 10.0 mi NNW 10.4 mph 18.4 mph N/A   Scattered Clouds
12:14 PM 53.6 °F - 28.4 °F 38% 29.80 in 10.0 mi NW 10.4 mph 18.4 mph N/A   Scattered Clouds
12:35 PM 55.4 °F - 28.4 °F 36% 29.80 in 10.0 mi NW 10.4 mph 17.3 mph N/A   Scattered Clouds
12:55 PM 55.4 °F - 28.4 °F 36% 29.80 in 10.0 mi WNW 8.1 mph 18.4 mph N/A   Mostly Cloudy
1:15 PM 57.2 °F - 23.0 °F 27% 29.79 in 10.0 mi NW 10.4 mph - N/A   Mostly Cloudy
1:34 PM 57.2 °F - 23.0 °F 27% 29.79 in 10.0 mi West 10.4 mph - N/A   Mostly Cloudy
1:55 PM 59.0 °F - 23.0 °F 25% 29.78 in 10.0 mi NW 10.4 mph 17.3 mph N/A   Scattered Clouds
2:10 PM 59.0 °F - 23.0 °F 25% 29.77 in 10.0 mi NNW 6.9 mph 16.1 mph N/A   Scattered Clouds
2:51 PM 59.0 °F - 23.0 °F 25% 29.77 in 10.0 mi West 8.1 mph - N/A   Scattered Clouds
3:11 PM 59.0 °F - 24.8 °F 27% 29.76 in 10.0 mi West 10.4 mph 17.3 mph N/A   Scattered Clouds
3:31 PM 60.8 °F - 23.0 °F 23% 29.76 in 10.0 mi NW 11.5 mph 17.3 mph N/A   Clear
3:56 PM 57.2 °F - 23.0 °F 27% 29.75 in 10.0 mi NW 8.1 mph - N/A   Scattered Clouds
4:10 PM 55.4 °F - 23.0 °F 29% 29.75 in 10.0 mi WNW 8.1 mph - N/A   Scattered Clouds
4:30 PM 59.0 °F - 23.0 °F 25% 29.75 in 10.0 mi WNW 6.9 mph - N/A   Scattered Clouds
4:50 PM 59.0 °F - 23.0 °F 25% 29.74 in 10.0 mi WNW 8.1 mph 16.1 mph N/A   Clear
5:10 PM 55.4 °F - 23.0 °F 29% 29.74 in 10.0 mi NW 10.4 mph - N/A   Clear
5:30 PM 59.0 °F - 23.0 °F 25% 29.74 in 10.0 mi WNW 11.5 mph - N/A   Clear
5:50 PM 55.4 °F - 23.0 °F 29% 29.75 in 10.0 mi WNW 9.2 mph - N/A   Clear
6:10 PM 55.4 °F - 21.2 °F 26% 29.74 in 10.0 mi Calm Calm - N/A   Scattered Clouds
6:31 PM 53.6 °F - 21.2 °F 28% 29.74 in 10.0 mi West 6.9 mph - N/A   Scattered Clouds
6:51 PM 53.6 °F - 23.0 °F 30% 29.73 in 10.0 mi Calm Calm - N/A   Clear
7:10 PM 51.8 °F - 26.6 °F 38% 29.73 in 10.0 mi Calm Calm - N/A   Scattered Clouds
7:31 PM 48.2 °F - 32.0 °F 54% 29.77 in 10.0 mi NW 21.9 mph 36.8 mph N/A Rain Light Rain
7:50 PM 44.6 °F 39.7 °F 35.6 °F 71% 29.77 in 7.0 mi NW 9.2 mph 18.4 mph 0.01 in Rain Heavy Rain
8:10 PM 44.6 °F 40.7 °F 35.6 °F 71% 29.77 in 10.0 mi NNW 6.9 mph - N/A Rain Light Rain
8:30 PM 42.8 °F 34.3 °F 35.6 °F 76% 29.81 in 5.0 mi NW 19.6 mph 27.6 mph N/A Rain Heavy Rain
8:50 PM 41.0 °F 36.4 °F 32.0 °F 70% 29.81 in 10.0 mi NNW 6.9 mph - 0.02 in Rain Rain
9:11 PM 37.4 °F 32.1 °F 32.0 °F 81% 29.80 in 5.0 mi North 6.9 mph 23.0 mph N/A Rain Rain
9:31 PM 37.4 °F 30.8 °F 32.0 °F 81% 29.81 in 10.0 mi NNW 9.2 mph - 0.01 in Rain Light Rain
9:51 PM 35.6 °F 31.7 °F 32.0 °F 87% 29.81 in 10.0 mi North 4.6 mph - 0.01 in   Overcast
10:10 PM 35.6 °F 28.6 °F 32.0 °F 87% 29.81 in 7.0 mi NW 9.2 mph 17.3 mph N/A Rain Light Rain
10:30 PM 35.6 °F 29.9 °F 30.2 °F 81% 29.82 in 10.0 mi NW 6.9 mph - N/A   Mostly Cloudy
10:51 PM 35.6 °F 29.9 °F 30.2 °F 81% 29.82 in 10.0 mi NW 6.9 mph - N/A   Mostly Cloudy
11:11 PM 35.6 °F - 30.2 °F 81% 29.82 in 10.0 mi Calm Calm - N/A   Overcast
11:30 PM 35.6 °F 31.7 °F 30.2 °F 81% 29.83 in 10.0 mi WNW 4.6 mph - N/A   Overcast
11:51 PM 35.6 °F - 30.2 °F 81% 29.83 in 10.0 mi Calm Calm - N/A   Overcast